This is the latest recevied weather packets stored in our database for station/object NO4D. If no packets are shown the sender has not sent any weather packets the latest 10 day(s).
| Time | Temp. | Humidity | Pressure | Rain* | Wind** | Luminosity | Snow |
|---|---|---|---|---|---|---|---|
| 1778165408 | 18.33° C | 99% | 1009.9 hPa | 3.05 mm | - | 275 W/m² | - |
| 1778165105 | 18.33° C | 99% | 1009.8 hPa | 3.05 mm | - | 328 W/m² | - |
| 1778164802 | 17.78° C | 99% | 1009.5 hPa | 1.78 mm | - | 500 W/m² | - |
| 1778164499 | 17.78° C | 99% | 1009.5 hPa | 1.27 mm | - | 458 W/m² | - |
| 1778164196 | 18.33° C | 99% | 1009.4 hPa | 3.05 mm | - | 210 W/m² | - |
| 1778163891 | 18.33° C | 99% | 1009.8 hPa | 1.78 mm | - | 214 W/m² | - |
| 1778163589 | 17.78° C | 99% | 1009.9 hPa | 1.27 mm | - | 235 W/m² | - |
| 1778163284 | 18.33° C | 99% | 1009.9 hPa | 3.05 mm | - | 245 W/m² | - |
| 1778162982 | 17.78° C | 99% | 1010.1 hPa | 1.78 mm | - | 273 W/m² | - |
| 1778162678 | 17.78° C | 99% | 1010 hPa | 1.78 mm | - | 172 W/m² | - |
| 1778162376 | 17.78° C | 99% | 1010.5 hPa | 3.05 mm | - | 117 W/m² | - |
| 1778162073 | 17.78° C | 99% | 1010.8 hPa | 1.27 mm | - | 90 W/m² | - |
| 1778161770 | 17.78° C | 99% | 1011 hPa | 1.78 mm | - | 80 W/m² | - |
| 1778161466 | 17.78° C | 99% | 1011 hPa | 3.05 mm | - | 76 W/m² | - |
| 1778161162 | 17.78° C | 99% | 1010.9 hPa | 1.27 mm | - | 61 W/m² | - |
| 1778160859 | 17.78° C | 99% | 1011.1 hPa | 1.78 mm | - | 77 W/m² | - |
| 1778160557 | 17.78° C | 99% | 1011 hPa | 3.05 mm | - | 50 W/m² | - |
| 1778160253 | 17.78° C | 99% | 1011.2 hPa | 1.27 mm | - | 35 W/m² | - |
| 1778159950 | 17.78° C | 99% | 1011 hPa | 1.78 mm | - | 31 W/m² | - |
| 1778159647 | 17.78° C | 99% | 1011 hPa | 3.05 mm | - | 31 W/m² | - |
| 1778159344 | 17.78° C | 99% | 1010.5 hPa | 1.27 mm | - | 32 W/m² | - |
| 1778159040 | 17.78° C | 99% | 1010.5 hPa | 1.78 mm | - | 32 W/m² | - |
| 1778158740 | 17.78° C | 99% | 1010.8 hPa | 3.05 mm | - | 38 W/m² | - |
| 1778158437 | 17.78° C | 99% | 1010.5 hPa | 3.05 mm | - | 43 W/m² | - |
| 1778158134 | 17.78° C | 99% | 1010.2 hPa | 1.78 mm | - | 52 W/m² | - |
* Rain latest hour (hover to see other rain measurements)
** Current wind speed in m/s (hover to see current wind gust speed)